Dades meteomassalio
Diari Summary for Juliol 29, 2017 Units:  Metric    English   Both
« Previous Day
Next Day »
Diari Semanal Mensual Anual Personalitzat
  Maxima: Minima: Mijana:
Temperatura: 34.4 °C 19.3 °C 27.1 °C
Rosada: 22.4 °C 15.7 °C 19.6 °C
Humitat: 87 % 43 % 65 %
Velocitat del vent: 20.9 km/h 0.0 km/h 4.3 km/h
Racha vent: 20.9 km/h - -
Vent:- - East
Pressio: 1015.1 hPa 1010.7 hPa -
Pluja: 0.0 mm    
Historical Graphs
 
 
Tabular Data for Juliol 29, 2017
Time Temperature Dew Point Pressure Wind Wind Speed Wind Gust Humidity Rainfall Rate (Hourly) solar Conditions
00:04 25.2 °C 19.3 °C 1013.8 hPa Calm     70 % 0.0 mm 0.0 W/m2 CLR
00:09 25.0 °C 19.2 °C 1013.8 hPa Calm     70 % 0.0 mm 0.0 W/m2 CLR
00:14 24.9 °C 19.3 °C 1013.8 hPa Calm     71 % 0.0 mm 0.0 W/m2 CLR
00:19 24.7 °C 19.3 °C 1013.8 hPa Calm     72 % 0.0 mm 0.0 W/m2 CLR
00:24 24.7 °C 19.3 °C 1013.8 hPa Calm     72 % 0.0 mm 0.0 W/m2 CLR
00:29 24.7 °C 19.3 °C 1013.8 hPa Calm     72 % 0.0 mm 0.0 W/m2 CLR
00:34 24.6 °C 19.4 °C 1013.8 hPa Calm     73 % 0.0 mm 0.0 W/m2 CLR
00:39 24.5 °C 19.3 °C 1013.8 hPa Calm     73 % 0.0 mm 0.0 W/m2 CLR
00:44 24.4 °C 19.5 °C 1013.8 hPa Calm     74 % 0.0 mm 0.0 W/m2 CLR
00:49 24.3 °C 19.4 °C 1013.8 hPa Calm     74 % 0.0 mm 0.0 W/m2 CLR
00:54 24.2 °C 19.5 °C 1013.8 hPa Calm     75 % 0.0 mm 0.0 W/m2 CLR
00:59 24.1 °C 19.6 °C 1013.8 hPa Calm     76 % 0.0 mm 0.0 W/m2 CLR
01:04 24.0 °C 19.3 °C 1013.8 hPa Calm     75 % 0.0 mm 0.0 W/m2 CLR
01:09 23.9 °C 18.9 °C 1013.8 hPa Calm     74 % 0.0 mm 0.0 W/m2 CLR
01:14 23.7 °C 18.6 °C 1013.8 hPa Calm     73 % 0.0 mm 0.0 W/m2 CLR
01:19 23.5 °C 18.4 °C 1013.8 hPa Calm     73 % 0.0 mm 0.0 W/m2 CLR
01:24 23.4 °C 18.5 °C 1013.8 hPa Calm     74 % 0.0 mm 0.0 W/m2 CLR
01:29 23.3 °C 18.4 °C 1013.8 hPa Calm     74 % 0.0 mm 0.0 W/m2 CLR
01:34 23.2 °C 18.5 °C 1013.8 hPa Calm     75 % 0.0 mm 0.0 W/m2 CLR
01:39 23.1 °C 18.6 °C 1013.4 hPa Calm     76 % 0.0 mm 0.0 W/m2 CLR
01:44 23.1 °C 18.6 °C 1013.8 hPa Calm     76 % 0.0 mm 0.0 W/m2 CLR
01:49 23.0 °C 18.6 °C 1013.8 hPa Calm     76 % 0.0 mm 0.0 W/m2 CLR
01:54 22.9 °C 18.7 °C 1013.4 hPa Calm     77 % 0.0 mm 0.0 W/m2 CLR
01:59 22.8 °C 18.6 °C 1013.8 hPa Calm     77 % 0.0 mm 0.0 W/m2 CLR
02:04 22.7 °C 18.4 °C 1013.8 hPa Calm     77 % 0.0 mm 0.0 W/m2 CLR
02:09 22.6 °C 18.5 °C 1013.8 hPa Calm     78 % 0.0 mm 0.0 W/m2 CLR
02:14 22.4 °C 18.4 °C 1013.8 hPa Calm     78 % 0.0 mm 0.0 W/m2 CLR
02:19 22.3 °C 18.7 °C 1013.8 hPa Calm     80 % 0.0 mm 0.0 W/m2 CLR
02:24 22.4 °C 18.9 °C 1013.8 hPa Calm     81 % 0.0 mm 0.0 W/m2 CLR
02:29 22.4 °C 18.8 °C 1013.8 hPa Calm     80 % 0.0 mm 0.0 W/m2 CLR
02:34 22.3 °C 18.3 °C 1013.8 hPa Calm     78 % 0.0 mm 0.0 W/m2 CLR
02:39 22.2 °C 18.4 °C 1014.1 hPa Calm     79 % 0.0 mm 0.0 W/m2 CLR
02:44 22.1 °C 18.1 °C 1013.8 hPa Calm     78 % 0.0 mm 0.0 W/m2 CLR
02:49 22.0 °C 18.2 °C 1013.8 hPa Calm     79 % 0.0 mm 0.0 W/m2 CLR
02:54 21.9 °C 18.1 °C 1013.8 hPa Calm     79 % 0.0 mm 0.0 W/m2 CLR
02:59 21.7 °C 18.1 °C 1013.8 hPa Calm     80 % 0.0 mm 0.0 W/m2 CLR
03:04 21.7 °C 18.3 °C 1013.8 hPa Calm     81 % 0.0 mm 0.0 W/m2 CLR
03:09 21.6 °C 18.2 °C 1013.8 hPa Calm     81 % 0.0 mm 0.0 W/m2 CLR
03:15 21.4 °C 18.2 °C 1013.8 hPa Calm     82 % 0.0 mm 0.0 W/m2 CLR
03:20 21.4 °C 18.4 °C 1013.8 hPa Calm     83 % 0.0 mm 0.0 W/m2 CLR
03:24 21.3 °C 18.1 °C 1013.8 hPa Calm     82 % 0.0 mm 0.0 W/m2 CLR
03:29 21.3 °C 18.3 °C 1013.8 hPa Calm     83 % 0.0 mm 0.0 W/m2 CLR
03:35 21.2 °C 18.2 °C 1013.8 hPa Calm     83 % 0.0 mm 0.0 W/m2 CLR
03:40 21.2 °C 18.4 °C 1013.8 hPa Calm     84 % 0.0 mm 0.0 W/m2 CLR
03:45 21.1 °C 18.1 °C 1013.8 hPa Calm     83 % 0.0 mm 0.0 W/m2 CLR
03:50 20.9 °C 17.8 °C 1013.8 hPa Calm     82 % 0.0 mm 0.0 W/m2 CLR
03:55 20.9 °C 17.7 °C 1013.8 hPa Calm     82 % 0.0 mm 0.0 W/m2 CLR
04:00 20.8 °C 17.7 °C 1013.8 hPa Calm     82 % 0.0 mm 0.0 W/m2 CLR
04:05 20.7 °C 17.7 °C 1013.8 hPa Calm     83 % 0.0 mm 0.0 W/m2 CLR
04:10 20.7 °C 17.7 °C 1013.8 hPa Calm     83 % 0.0 mm 0.0 W/m2 CLR
04:15 20.6 °C 17.6 °C 1013.8 hPa Calm     83 % 0.0 mm 0.0 W/m2 CLR
04:20 20.6 °C 17.4 °C 1013.8 hPa Calm     82 % 0.0 mm 0.0 W/m2 CLR
04:25 20.6 °C 17.4 °C 1013.8 hPa Calm     82 % 0.0 mm 0.0 W/m2 CLR
04:30 20.6 °C 17.4 °C 1013.8 hPa Calm     82 % 0.0 mm 0.0 W/m2 CLR
04:35 20.5 °C 17.3 °C 1013.8 hPa Calm     82 % 0.0 mm 0.0 W/m2 CLR
04:40 20.4 °C 17.4 °C 1013.8 hPa Calm     83 % 0.0 mm 0.0 W/m2 CLR
04:45 20.4 °C 17.4 °C 1014.1 hPa Calm     83 % 0.0 mm 0.0 W/m2 CLR
04:50 20.4 °C 17.4 °C 1014.1 hPa Calm     83 % 0.0 mm 0.0 W/m2 CLR
04:55 20.4 °C 17.4 °C 1013.8 hPa Calm     83 % 0.0 mm 0.0 W/m2 CLR
05:00 20.4 °C 17.4 °C 1013.8 hPa Calm     83 % 0.0 mm 0.0 W/m2 CLR
05:05 20.4 °C 17.3 °C 1014.1 hPa Calm     82 % 0.0 mm 0.0 W/m2 CLR
05:10 20.4 °C 17.2 °C 1013.8 hPa Calm     82 % 0.0 mm 0.0 W/m2 CLR
05:15 20.4 °C 17.4 °C 1014.1 hPa Calm     83 % 0.0 mm 0.0 W/m2 CLR
05:20 20.3 °C 17.2 °C 1014.1 hPa Calm     82 % 0.0 mm 0.0 W/m2 CLR
05:25 20.3 °C 17.2 °C 1014.1 hPa Calm     82 % 0.0 mm 0.0 W/m2 CLR
05:30 20.2 °C 17.1 °C 1014.1 hPa Calm     82 % 0.0 mm 0.0 W/m2 CLR
05:35 20.2 °C 17.2 °C 1014.1 hPa Calm     83 % 0.0 mm 0.0 W/m2 CLR
05:40 20.1 °C 17.1 °C 1014.1 hPa Calm     83 % 0.0 mm 0.0 W/m2 CLR
05:45 20.0 °C 17.0 °C 1014.1 hPa Calm     83 % 0.0 mm 0.0 W/m2 CLR
05:50 19.9 °C 17.2 °C 1014.1 hPa Calm     84 % 0.0 mm 0.0 W/m2 CLR
05:55 19.9 °C 17.3 °C 1014.1 hPa Calm     85 % 0.0 mm 0.0 W/m2 CLR
06:00 19.8 °C 17.2 °C 1014.1 hPa Calm     85 % 0.0 mm 0.0 W/m2 CLR
06:05 19.7 °C 17.3 °C 1014.1 hPa Calm     86 % 0.0 mm 0.0 W/m2 CLR
06:10 19.7 °C 17.3 °C 1014.1 hPa Calm     86 % 0.0 mm 0.0 W/m2 CLR
06:15 19.7 °C 17.3 °C 1014.1 hPa Calm     86 % 0.0 mm 0.0 W/m2 CLR
06:20 19.6 °C 17.2 °C 1014.1 hPa Calm     86 % 0.0 mm 0.0 W/m2 CLR
06:25 19.6 °C 17.2 °C 1014.1 hPa Calm     86 % 0.0 mm 0.0 W/m2 CLR
06:30 19.6 °C 17.2 °C 1014.1 hPa Calm     86 % 0.0 mm 0.0 W/m2 CLR
06:35 19.5 °C 17.1 °C 1014.1 hPa Calm     86 % 0.0 mm 0.0 W/m2 CLR
06:40 19.4 °C 17.1 °C 1014.4 hPa Calm     86 % 0.0 mm 0.0 W/m2 CLR
06:45 19.3 °C 16.9 °C 1014.4 hPa Calm     86 % 0.0 mm 0.0 W/m2 OVC
06:50 19.3 °C 16.9 °C 1014.4 hPa Calm     86 % 0.0 mm 0.0 W/m2 OVC
06:55 19.3 °C 16.7 °C 1014.4 hPa Calm     85 % 0.0 mm 0.0 W/m2 OVC
07:00 19.3 °C 16.9 °C 1014.4 hPa Calm     86 % 0.0 mm 7.0 W/m2 BKN
07:05 19.3 °C 16.9 °C 1014.4 hPa Calm     86 % 0.0 mm 11.0 W/m2 BKN
07:10 19.3 °C 17.1 °C 1014.4 hPa Calm     87 % 0.0 mm 12.0 W/m2 BKN
07:15 19.3 °C 17.1 °C 1014.4 hPa Calm     87 % 0.0 mm 16.0 W/m2 BKN
07:17 19.3 °C 17.1 °C 1014.4 hPa Calm     87 % 0.0 mm 18.0 W/m2 BKN
07:22 19.3 °C 17.1 °C 1014.4 hPa Calm     87 % 0.0 mm 23.0 W/m2 BKN
07:27 19.3 °C 17.1 °C 1014.4 hPa Calm     87 % 0.0 mm 28.0 W/m2 BKN
07:32 19.4 °C 17.2 °C 1014.4 hPa Calm     87 % 0.0 mm 33.0 W/m2 BKN
07:42 19.5 °C 17.1 °C 1014.8 hPa Calm     86 % 0.0 mm 53.0 W/m2 SCT
07:47 19.7 °C 17.3 °C 1014.8 hPa Calm     86 % 0.0 mm 62.0 W/m2 SCT
07:52 19.8 °C 17.2 °C 1014.8 hPa Calm     85 % 0.0 mm 70.0 W/m2 FEW
07:57 20.1 °C 17.3 °C 1014.8 hPa Calm     84 % 0.0 mm 83.0 W/m2 FEW
08:02 20.3 °C 17.6 °C 1014.8 hPa Calm     84 % 0.0 mm 98.0 W/m2 FEW
08:07 20.6 °C 17.6 °C 1014.8 hPa Calm     83 % 0.0 mm 113.0 W/m2 CLR
08:12 20.8 °C 17.8 °C 1014.8 hPa Calm     83 % 0.0 mm 127.0 W/m2 CLR
08:17 21.2 °C 17.8 °C 1014.8 hPa Calm     81 % 0.0 mm 141.0 W/m2 CLR
08:22 21.6 °C 18.2 °C 1014.8 hPa Calm     81 % 0.0 mm 160.0 W/m2 CLR
08:27 22.0 °C 18.4 °C 1014.8 hPa Calm     80 % 0.0 mm 176.0 W/m2 CLR
08:32 22.4 °C 18.6 °C 1014.8 hPa Calm     79 % 0.0 mm 190.0 W/m2 CLR
08:37 22.7 °C 18.7 °C 1014.8 hPa Calm     78 % 0.0 mm 206.0 W/m2 CLR
08:42 23.0 °C 18.7 °C 1014.8 hPa Calm     77 % 0.0 mm 220.0 W/m2 CLR
08:47 23.3 °C 18.8 °C 1014.8 hPa Calm     76 % 0.0 mm 239.0 W/m2 CLR
08:52 23.5 °C 19.0 °C 1014.8 hPa Calm     76 % 0.0 mm 257.0 W/m2 CLR
08:57 23.9 °C 18.9 °C 1014.8 hPa Calm     74 % 0.0 mm 272.0 W/m2 CLR
09:02 24.4 °C 19.4 °C 1014.8 hPa Calm     74 % 0.0 mm 288.0 W/m2 CLR
09:07 24.9 °C 19.7 °C 1014.8 hPa Calm     73 % 0.0 mm 308.0 W/m2 CLR
09:12 25.4 °C 19.7 °C 1015.1 hPa Calm     71 % 0.0 mm 322.0 W/m2 CLR
09:17 25.7 °C 19.8 °C 1014.8 hPa Calm     70 % 0.0 mm 336.0 W/m2 CLR
09:22 25.9 °C 20.0 °C 1014.8 hPa Calm     70 % 0.0 mm 352.0 W/m2 CLR
09:27 26.1 °C 19.9 °C 1014.8 hPa Calm     69 % 0.0 mm 367.0 W/m2 CLR
09:32 26.2 °C 20.1 °C 1014.8 hPa Calm     69 % 0.0 mm 383.0 W/m2 CLR
09:37 26.4 °C 19.8 °C 1014.8 hPa Calm     67 % 0.0 mm 399.0 W/m2 CLR
09:42 26.5 °C 17.3 °C 1014.8 hPa Calm     57 % 0.0 mm 413.0 W/m2 CLR
09:47 26.6 °C 15.7 °C 1014.8 hPa Calm     51 % 0.0 mm 431.0 W/m2 CLR
09:49 26.8 °C 16.4 °C 1015.1 hPa Calm     53 % 0.0 mm 350.0 W/m2 CLR
09:54 27.2 °C 16.8 °C 1015.1 hPa Calm     53 % 0.0 mm 102.0 W/m2 CLR
09:59 27.6 °C 16.9 °C 1015.1 hPa Calm     52 % 0.0 mm 471.0 W/m2 CLR
10:04 27.6 °C 17.4 °C 1015.1 hPa Calm     54 % 0.0 mm 483.0 W/m2 CLR
10:09 27.7 °C 16.3 °C 1015.1 hPa NNE 3.7 km/h 3.7 km/h 50 % 0.0 mm 499.0 W/m2 CLR
10:14 27.8 °C 16.8 °C 1015.1 hPa Calm   0.2 km/h 51 % 0.0 mm 512.0 W/m2 CLR
10:19 27.9 °C 16.5 °C 1015.1 hPa Calm     50 % 0.0 mm 526.0 W/m2 CLR
10:24 28.0 °C 16.9 °C 1015.1 hPa ENE 5.6 km/h 5.6 km/h 51 % 0.0 mm 541.0 W/m2 CLR
10:30 28.1 °C 16.4 °C 1015.1 hPa Calm     49 % 0.0 mm 555.0 W/m2 CLR
10:34 28.0 °C 16.3 °C 1015.1 hPa East 1.9 km/h 1.9 km/h 49 % 0.0 mm 566.0 W/m2 CLR
10:40 28.2 °C 16.2 °C 1015.1 hPa Calm   0.8 km/h 48 % 0.0 mm 582.0 W/m2 CLR
10:45 28.4 °C 16.1 °C 1015.1 hPa Calm     47 % 0.0 mm 592.0 W/m2 CLR
10:50 28.7 °C 16.6 °C 1014.8 hPa East 1.9 km/h   48 % 0.0 mm 612.0 W/m2 CLR
10:55 28.7 °C 17.6 °C 1014.8 hPa ENE 5.6 km/h 5.6 km/h 51 % 0.0 mm 622.0 W/m2 CLR
11:00 28.5 °C 18.0 °C 1014.8 hPa ENE 7.4 km/h 7.4 km/h 53 % 0.0 mm 636.0 W/m2 CLR
11:05 28.5 °C 18.0 °C 1014.8 hPa Calm     53 % 0.0 mm 647.0 W/m2 CLR
11:10 28.8 °C 18.3 °C 1014.8 hPa NNE 1.9 km/h   53 % 0.0 mm 663.0 W/m2 CLR
11:15 29.1 °C 18.2 °C 1014.8 hPa NNW 5.6 km/h   52 % 0.0 mm 670.0 W/m2 CLR
11:20 29.2 °C 18.6 °C 1014.8 hPa NE 3.7 km/h 3.7 km/h 53 % 0.0 mm 680.0 W/m2 CLR
11:25 29.3 °C 18.4 °C 1014.8 hPa Calm     52 % 0.0 mm 691.0 W/m2 CLR
11:26 29.2 °C 18.7 °C 1014.8 hPa NNE 1.9 km/h 1.9 km/h 53 % 0.0 mm 696.0 W/m2 CLR
11:31 29.2 °C 18.9 °C 1014.8 hPa Calm     54 % 0.0 mm 705.0 W/m2 CLR
11:36 29.2 °C 19.3 °C 1014.8 hPa East 7.4 km/h 7.4 km/h 55 % 0.0 mm 715.0 W/m2 CLR
11:41 29.3 °C 19.3 °C 1014.8 hPa ENE 9.7 km/h 9.7 km/h 55 % 0.0 mm 722.0 W/m2 CLR
11:46 29.3 °C 19.0 °C 1014.8 hPa ESE 5.6 km/h 5.6 km/h 54 % 0.0 mm 738.0 W/m2 CLR
11:51 29.3 °C 19.7 °C 1014.8 hPa Calm     56 % 0.0 mm 745.0 W/m2 CLR
11:56 29.8 °C 19.5 °C 1014.8 hPa NE 5.6 km/h 5.6 km/h 54 % 0.0 mm 754.0 W/m2 CLR
12:01 30.2 °C 19.6 °C 1014.4 hPa Calm     53 % 0.0 mm 766.0 W/m2 CLR
12:06 30.3 °C 19.4 °C 1014.4 hPa NE 13.0 km/h 13.0 km/h 52 % 0.0 mm 772.0 W/m2 CLR
12:11 30.2 °C 19.3 °C 1014.4 hPa Calm     52 % 0.0 mm 784.0 W/m2 CLR
12:16 30.2 °C 19.3 °C 1014.4 hPa Calm     52 % 0.0 mm 793.0 W/m2 CLR
12:21 30.5 °C 19.8 °C 1014.4 hPa ENE 11.1 km/h 11.1 km/h 53 % 0.0 mm 803.0 W/m2 CLR
12:26 30.6 °C 19.9 °C 1014.1 hPa North 5.6 km/h 5.6 km/h 53 % 0.0 mm 810.0 W/m2 CLR
12:31 30.8 °C 20.4 °C 1014.1 hPa North 3.7 km/h 3.7 km/h 54 % 0.0 mm 817.0 W/m2 CLR
12:36 30.8 °C 20.2 °C 1014.1 hPa North 7.4 km/h 7.4 km/h 53 % 0.0 mm 824.0 W/m2 CLR
12:41 30.8 °C 20.2 °C 1014.1 hPa NNE 9.3 km/h 9.3 km/h 53 % 0.0 mm 833.0 W/m2 CLR
12:46 31.1 °C 20.7 °C 1013.8 hPa NE 7.4 km/h 7.4 km/h 54 % 0.0 mm 838.0 W/m2 CLR
12:51 31.3 °C 20.6 °C 1013.8 hPa ENE 9.3 km/h 9.3 km/h 53 % 0.0 mm 844.0 W/m2 CLR
12:56 31.2 °C 20.5 °C 1013.8 hPa NNE 5.6 km/h 5.6 km/h 53 % 0.0 mm 851.0 W/m2 CLR
13:01 31.4 °C 20.7 °C 1013.8 hPa ENE 5.6 km/h 5.6 km/h 53 % 0.0 mm 860.0 W/m2 CLR
13:06 31.6 °C 20.5 °C 1013.8 hPa NW 5.6 km/h 5.6 km/h 52 % 0.0 mm 863.0 W/m2 CLR
13:11 31.6 °C 20.6 °C 1013.4 hPa ENE 9.3 km/h 9.3 km/h 52 % 0.0 mm 867.0 W/m2 CLR
13:16 31.9 °C 20.8 °C 1013.4 hPa Calm     52 % 0.0 mm 874.0 W/m2 CLR
13:21 32.2 °C 20.8 °C 1013.4 hPa Calm     51 % 0.0 mm 879.0 W/m2 CLR
13:22 32.3 °C 20.6 °C 1013.4 hPa ENE 4.8 km/h 4.8 km/h 50 % 0.0 mm 881.0 W/m2 CLR
13:27 32.6 °C 20.5 °C 1013.4 hPa ENE 11.1 km/h 11.1 km/h 49 % 0.0 mm 884.0 W/m2 CLR
13:32 32.6 °C 20.2 °C 1013.4 hPa ENE 5.6 km/h 5.6 km/h 48 % 0.0 mm 886.0 W/m2 CLR
13:37 32.7 °C 20.6 °C 1013.1 hPa NE 13.0 km/h 13.0 km/h 49 % 0.0 mm 889.0 W/m2 CLR
13:42 33.0 °C 20.6 °C 1013.1 hPa NE 13.0 km/h 13.0 km/h 48 % 0.0 mm 891.0 W/m2 CLR
13:47 33.2 °C 20.3 °C 1013.1 hPa NE 11.1 km/h 11.1 km/h 47 % 0.0 mm 891.0 W/m2 CLR
13:52 33.2 °C 20.3 °C 1013.1 hPa East 7.4 km/h 7.4 km/h 47 % 0.0 mm 893.0 W/m2 CLR
13:57 33.1 °C 20.3 °C 1013.1 hPa ENE 12.9 km/h 12.9 km/h 47 % 0.0 mm 895.0 W/m2 CLR
14:02 33.1 °C 20.3 °C 1013.1 hPa NE 5.6 km/h 5.6 km/h 47 % 0.0 mm 896.0 W/m2 CLR
14:07 33.5 °C 21.0 °C 1012.8 hPa NE 9.3 km/h 9.3 km/h 48 % 0.0 mm 893.0 W/m2 CLR
14:12 33.7 °C 20.8 °C 1013.1 hPa Calm     47 % 0.0 mm 895.0 W/m2 CLR
14:17 34.2 °C 20.6 °C 1012.8 hPa North 14.8 km/h 14.8 km/h 45 % 0.0 mm 895.0 W/m2 CLR
14:22 34.1 °C 20.4 °C 1012.8 hPa North 1.9 km/h 1.9 km/h 45 % 0.0 mm 891.0 W/m2 CLR
14:27 34.2 °C 20.6 °C 1012.8 hPa Calm   0.5 km/h 45 % 0.0 mm 886.0 W/m2 CLR
14:32 34.3 °C 19.9 °C 1012.8 hPa NE 13.0 km/h 13.0 km/h 43 % 0.0 mm 888.0 W/m2 CLR
14:37 34.3 °C 20.3 °C 1012.4 hPa NE 5.6 km/h 5.6 km/h 44 % 0.0 mm 888.0 W/m2 CLR
14:42 34.4 °C 20.1 °C 1012.4 hPa ENE 11.1 km/h 11.1 km/h 43 % 0.0 mm 884.0 W/m2 CLR
14:47 34.4 °C 20.4 °C 1012.4 hPa East 16.7 km/h 16.7 km/h 44 % 0.0 mm 879.0 W/m2 CLR
14:52 34.3 °C 20.3 °C 1012.4 hPa Calm     44 % 0.0 mm 875.0 W/m2 CLR
14:57 34.2 °C 20.6 °C 1012.4 hPa SE 9.3 km/h 9.3 km/h 45 % 0.0 mm 872.0 W/m2 CLR
14:58 34.2 °C 20.6 °C 1012.1 hPa ENE 11.1 km/h 11.1 km/h 45 % 0.0 mm 870.0 W/m2 CLR
15:03 34.3 °C 21.4 °C 1012.1 hPa ESE 16.7 km/h 16.7 km/h 47 % 0.0 mm 867.0 W/m2 CLR
15:08 34.2 °C 21.3 °C 1012.1 hPa East 18.5 km/h 18.5 km/h 47 % 0.0 mm 868.0 W/m2 CLR
15:13 33.9 °C 21.0 °C 1012.1 hPa NNE 11.1 km/h 11.1 km/h 47 % 0.0 mm 837.0 W/m2 CLR
15:18 33.9 °C 21.0 °C 1012.1 hPa NE 1.9 km/h 1.9 km/h 47 % 0.0 mm 884.0 W/m2 CLR
15:23 34.1 °C 21.6 °C 1012.1 hPa East 14.8 km/h 14.8 km/h 48 % 0.0 mm 824.0 W/m2 CLR
15:28 34.1 °C 21.6 °C 1012.1 hPa East 18.5 km/h 18.5 km/h 48 % 0.0 mm 821.0 W/m2 CLR
15:33 34.1 °C 21.9 °C 1012.1 hPa East 18.5 km/h 18.5 km/h 49 % 0.0 mm 872.0 W/m2 CLR
15:38 34.0 °C 21.8 °C 1012.1 hPa ENE 14.8 km/h 14.8 km/h 49 % 0.0 mm 874.0 W/m2 CLR
15:44 34.3 °C 21.7 °C 1012.1 hPa East 11.1 km/h 11.1 km/h 48 % 0.0 mm 849.0 W/m2 CLR
15:54 34.2 °C 22.0 °C 1011.7 hPa ENE 18.5 km/h 18.5 km/h 49 % 0.0 mm 807.0 W/m2 CLR
15:59 34.2 °C 22.0 °C 1011.7 hPa East 18.5 km/h 18.5 km/h 49 % 0.0 mm 824.0 W/m2 CLR
16:04 34.1 °C 22.2 °C 1011.7 hPa ENE 18.5 km/h 18.5 km/h 50 % 0.0 mm 807.0 W/m2 CLR
16:14 34.0 °C 22.4 °C 1011.7 hPa East 20.9 km/h 20.9 km/h 51 % 0.0 mm 812.0 W/m2 CLR
16:19 33.7 °C 22.2 °C 1011.7 hPa ESE 14.5 km/h 14.5 km/h 51 % 0.0 mm 779.0 W/m2 CLR
16:24 33.7 °C 22.4 °C 1011.7 hPa SE 20.4 km/h 20.4 km/h 52 % 0.0 mm 756.0 W/m2 CLR
16:29 33.7 °C 22.4 °C 1011.7 hPa ESE 14.8 km/h 14.8 km/h 52 % 0.0 mm 738.0 W/m2 CLR
16:34 33.5 °C 22.3 °C 1011.7 hPa ESE 18.5 km/h 18.5 km/h 52 % 0.0 mm 724.0 W/m2 CLR
16:39 33.7 °C 22.2 °C 1011.7 hPa SE 18.5 km/h 18.5 km/h 51 % 0.0 mm 712.0 W/m2 CLR
16:44 33.7 °C 21.8 °C 1011.4 hPa East 18.5 km/h 18.5 km/h 50 % 0.0 mm 703.0 W/m2 CLR
16:49 33.6 °C 21.7 °C 1011.7 hPa ESE 16.1 km/h 16.1 km/h 50 % 0.0 mm 694.0 W/m2 CLR
16:54 33.6 °C 21.8 °C 1011.4 hPa ESE 11.1 km/h 11.1 km/h 50 % 0.0 mm 679.0 W/m2 CLR
16:59 33.9 °C 21.7 °C 1011.4 hPa ESE 16.7 km/h 16.7 km/h 49 % 0.0 mm 671.0 W/m2 CLR
17:09 34.3 °C 21.3 °C 1011.4 hPa ESE 16.7 km/h 16.7 km/h 47 % 0.0 mm 656.0 W/m2 CLR
17:14 34.1 °C 21.9 °C 1011.4 hPa East 14.5 km/h 14.5 km/h 49 % 0.0 mm 659.0 W/m2 CLR
17:19 33.9 °C 21.7 °C 1011.4 hPa East 14.8 km/h 14.8 km/h 49 % 0.0 mm 190.0 W/m2 CLR
17:24 33.7 °C 21.8 °C 1011.4 hPa East 16.7 km/h 16.7 km/h 50 % 0.0 mm 698.0 W/m2 CLR
17:29 33.8 °C 21.6 °C 1011.4 hPa SE 14.8 km/h 14.8 km/h 49 % 0.0 mm 670.0 W/m2 CLR
17:34 33.7 °C 21.8 °C 1011.1 hPa East 16.7 km/h 16.7 km/h 50 % 0.0 mm 214.0 W/m2 CLR
17:39 33.6 °C 22.0 °C 1011.1 hPa East 16.7 km/h 16.7 km/h 51 % 0.0 mm 232.0 W/m2 CLR
17:44 33.4 °C 21.9 °C 1011.1 hPa East 14.5 km/h 14.5 km/h 51 % 0.0 mm 283.0 W/m2 CLR
17:49 33.3 °C 22.2 °C 1011.1 hPa ESE 11.1 km/h 11.1 km/h 52 % 0.0 mm 278.0 W/m2 CLR
17:54 33.4 °C 22.2 °C 1011.4 hPa ESE 14.5 km/h 14.5 km/h 52 % 0.0 mm 271.0 W/m2 CLR
17:59 33.3 °C 21.4 °C 1011.1 hPa SE 18.5 km/h 18.5 km/h 50 % 0.0 mm 323.0 W/m2 CLR
18:04 33.2 °C 21.1 °C 1011.1 hPa SE 18.5 km/h 18.5 km/h 49 % 0.0 mm 278.0 W/m2 CLR
18:14 32.9 °C 21.8 °C 1011.1 hPa ESE 18.5 km/h 18.5 km/h 52 % 0.0 mm 274.0 W/m2 CLR
18:19 32.7 °C 21.6 °C 1011.1 hPa ESE 13.0 km/h 13.0 km/h 52 % 0.0 mm 202.0 W/m2 CLR
18:24 32.6 °C 21.4 °C 1011.1 hPa East 13.0 km/h 13.0 km/h 52 % 0.0 mm 225.0 W/m2 CLR
18:29 32.6 °C 21.7 °C 1011.1 hPa East 14.8 km/h 14.8 km/h 53 % 0.0 mm 336.0 W/m2 CLR
18:34 32.5 °C 21.7 °C 1011.1 hPa East 11.3 km/h 11.3 km/h 53 % 0.0 mm 139.0 W/m2 CLR
18:39 32.3 °C 21.6 °C 1011.1 hPa ESE 16.7 km/h 16.7 km/h 53 % 0.0 mm 146.0 W/m2 CLR
18:44 32.2 °C 21.7 °C 1011.1 hPa East 11.1 km/h 11.1 km/h 54 % 0.0 mm 146.0 W/m2 CLR
18:49 32.1 °C 21.9 °C 1010.7 hPa ESE 11.1 km/h 11.1 km/h 55 % 0.0 mm 174.0 W/m2 CLR
18:50 32.1 °C 21.9 °C 1010.7 hPa East 11.1 km/h 11.1 km/h 55 % 0.0 mm 153.0 W/m2 CLR
18:55 31.9 °C 21.7 °C 1010.7 hPa East 11.1 km/h 11.1 km/h 55 % 0.0 mm 153.0 W/m2 CLR
19:00 31.7 °C 21.5 °C 1010.7 hPa ESE 14.8 km/h 14.8 km/h 55 % 0.0 mm 153.0 W/m2 CLR
19:05 31.6 °C 21.7 °C 1010.7 hPa ESE 13.0 km/h 13.0 km/h 56 % 0.0 mm 144.0 W/m2 CLR
19:10 31.6 °C 21.7 °C 1010.7 hPa SE 18.5 km/h 18.5 km/h 56 % 0.0 mm 334.0 W/m2 CLR
19:15 31.5 °C 21.7 °C 1010.7 hPa ESE 18.5 km/h 18.5 km/h 56 % 0.0 mm 336.0 W/m2 CLR
19:20 31.6 °C 21.8 °C 1010.7 hPa ESE 20.4 km/h 20.4 km/h 56 % 0.0 mm 327.0 W/m2 CLR
19:25 31.4 °C 21.9 °C 1010.7 hPa ESE 16.1 km/h 16.1 km/h 57 % 0.0 mm 306.0 W/m2 CLR
19:30 31.4 °C 21.8 °C 1010.7 hPa ESE 13.0 km/h 13.0 km/h 57 % 0.0 mm 262.0 W/m2 CLR
19:35 31.4 °C 21.8 °C 1010.7 hPa ESE 16.7 km/h 16.7 km/h 57 % 0.0 mm 243.0 W/m2 CLR
19:40 31.4 °C 21.8 °C 1010.7 hPa SE 11.1 km/h 11.1 km/h 57 % 0.0 mm 83.0 W/m2 CLR
19:45 31.3 °C 22.0 °C 1011.1 hPa East 5.6 km/h 5.8 km/h 58 % 0.0 mm 70.0 W/m2 CLR
19:50 31.1 °C 21.9 °C 1011.1 hPa ENE 8.0 km/h 8.0 km/h 58 % 0.0 mm 69.0 W/m2 CLR
19:55 31.0 °C 22.1 °C 1010.7 hPa East 5.6 km/h 5.6 km/h 59 % 0.0 mm 148.0 W/m2 FEW
20:00 30.9 °C 22.0 °C 1010.7 hPa East 7.4 km/h 7.4 km/h 59 % 0.0 mm 149.0 W/m2 CLR
20:05 30.9 °C 22.2 °C 1010.7 hPa Calm   0.5 km/h 60 % 0.0 mm 160.0 W/m2 CLR
20:10 30.9 °C 21.9 °C 1010.7 hPa ENE 6.4 km/h 6.4 km/h 59 % 0.0 mm 144.0 W/m2 CLR
20:15 30.9 °C 22.2 °C 1010.7 hPa ENE 5.6 km/h 5.6 km/h 60 % 0.0 mm 130.0 W/m2 CLR
20:20 30.8 °C 22.1 °C 1010.7 hPa NNE 5.6 km/h   60 % 0.0 mm 113.0 W/m2 CLR
20:25 30.7 °C 22.1 °C 1010.7 hPa ENE 3.7 km/h 4.5 km/h 60 % 0.0 mm 98.0 W/m2 CLR
20:30 30.7 °C 22.0 °C 1010.7 hPa NE 9.3 km/h 9.3 km/h 60 % 0.0 mm 83.0 W/m2 FEW
20:35 30.5 °C 22.1 °C 1010.7 hPa NE 7.4 km/h   61 % 0.0 mm 56.0 W/m2 SCT
20:40 30.3 °C 21.9 °C 1011.1 hPa Calm     61 % 0.0 mm 40.0 W/m2 BKN
20:45 30.1 °C 22.0 °C 1011.1 hPa Calm     62 % 0.0 mm 33.0 W/m2 BKN
20:50 30.0 °C 21.9 °C 1011.1 hPa Calm     62 % 0.0 mm 25.0 W/m2 BKN
20:55 29.8 °C 22.1 °C 1011.1 hPa Calm     63 % 0.0 mm 19.0 W/m2 BKN
21:00 29.6 °C 21.8 °C 1011.1 hPa Calm     63 % 0.0 mm 14.0 W/m2 BKN
21:05 29.4 °C 21.6 °C 1011.4 hPa Calm     63 % 0.0 mm 11.0 W/m2 BKN
21:10 29.2 °C 21.7 °C 1011.4 hPa Calm     64 % 0.0 mm 7.0 W/m2 BKN
21:15 29.1 °C 21.8 °C 1011.4 hPa Calm     65 % 0.0 mm 5.0 W/m2 OVC
21:20 28.8 °C 21.6 °C 1011.4 hPa Calm     65 % 0.0 mm 0.0 W/m2 OVC
21:25 28.6 °C 21.6 °C 1011.4 hPa NE 4.8 km/h 4.8 km/h 66 % 0.0 mm 0.0 W/m2 OVC
21:30 28.3 °C 21.6 °C 1011.4 hPa ENE 7.4 km/h 7.4 km/h 67 % 0.0 mm 0.0 W/m2 CLR
21:35 28.1 °C 21.3 °C 1011.4 hPa Calm     67 % 0.0 mm 0.0 W/m2 CLR
21:41 27.9 °C 21.4 °C 1011.7 hPa NE 8.0 km/h 8.0 km/h 68 % 0.0 mm 0.0 W/m2 CLR
21:46 27.8 °C 21.4 °C 1011.7 hPa NE 1.9 km/h   68 % 0.0 mm 0.0 W/m2 CLR
21:51 27.7 °C 21.5 °C 1011.7 hPa Calm     69 % 0.0 mm 0.0 W/m2 CLR
21:56 27.6 °C 21.4 °C 1011.7 hPa Calm     69 % 0.0 mm 0.0 W/m2 CLR
22:01 27.5 °C 21.3 °C 1011.7 hPa Calm     69 % 0.0 mm 0.0 W/m2 CLR
22:06 27.4 °C 21.2 °C 1011.7 hPa Calm     69 % 0.0 mm 0.0 W/m2 CLR
22:11 27.3 °C 21.4 °C 1011.7 hPa Calm     70 % 0.0 mm 0.0 W/m2 CLR
22:16 27.3 °C 21.3 °C 1011.7 hPa Calm     70 % 0.0 mm 0.0 W/m2 CLR
22:21 27.2 °C 21.3 °C 1011.7 hPa Calm     70 % 0.0 mm 0.0 W/m2 CLR
22:26 27.1 °C 21.2 °C 1011.7 hPa Calm     70 % 0.0 mm 0.0 W/m2 CLR
22:31 27.0 °C 21.3 °C 1011.7 hPa Calm     71 % 0.0 mm 0.0 W/m2 CLR
22:36 26.9 °C 21.2 °C 1011.7 hPa Calm     71 % 0.0 mm 0.0 W/m2 CLR
22:41 26.8 °C 21.1 °C 1011.7 hPa Calm     71 % 0.0 mm 0.0 W/m2 CLR
22:46 26.7 °C 21.3 °C 1011.7 hPa Calm     72 % 0.0 mm 0.0 W/m2 CLR
22:51 26.8 °C 21.3 °C 1011.7 hPa Calm     72 % 0.0 mm 0.0 W/m2 CLR
22:56 26.8 °C 21.1 °C 1011.7 hPa Calm     71 % 0.0 mm 0.0 W/m2 CLR
23:01 26.9 °C 21.2 °C 1011.7 hPa Calm     71 % 0.0 mm 0.0 W/m2 CLR
23:06 26.8 °C 21.1 °C 1011.7 hPa Calm     71 % 0.0 mm 0.0 W/m2 CLR
23:11 26.6 °C 21.2 °C 1011.7 hPa Calm     72 % 0.0 mm 0.0 W/m2 CLR
23:16 26.5 °C 21.1 °C 1011.7 hPa Calm     72 % 0.0 mm 0.0 W/m2 CLR
23:21 26.4 °C 21.2 °C 1011.7 hPa ENE 1.9 km/h   73 % 0.0 mm 0.0 W/m2 CLR
23:26 26.4 °C 21.2 °C 1011.7 hPa Calm     73 % 0.0 mm 0.0 W/m2 CLR
23:31 26.3 °C 21.1 °C 1011.4 hPa Calm     73 % 0.0 mm 0.0 W/m2 CLR
23:36 26.2 °C 21.0 °C 1011.7 hPa Calm     73 % 0.0 mm 0.0 W/m2 CLR
23:41 26.1 °C 21.1 °C 1011.7 hPa Calm     74 % 0.0 mm 0.0 W/m2 CLR
23:46 26.1 °C 21.1 °C 1011.7 hPa Calm     74 % 0.0 mm 0.0 W/m2 CLR
23:51 26.1 °C 20.9 °C 1011.7 hPa Calm     73 % 0.0 mm 0.0 W/m2 CLR
23:56 26.2 °C 20.9 °C 1011.7 hPa Calm     73 % 0.0 mm 0.0 W/m2 CLR
Lo Temps de Massalio
Compliments of Weather Underground - 1.25 mb